Track IRIDIUM 132 now! 10-day predictions IRIDIUM 132 is classified as:
1 42961U 17061G 24253.86303954 .00000312 00000-0 10450-3 0 9990 2 42961 86.3936 294.9262 0001836 100.1452 259.9951 14.34217889362327